Weather Roundup
Issued by NWS

Home | Current Version | Previous Version | Text Only | Print | Product List | Glossary On
Versions: 1 2 3 4 5 6 7 8 9 10 11 12 13 14 15 16 17 18 19 20 21 22 23 24 25 26 27 28 29 30 31 32 33 34 35 36 37 38 39 40 41 42 43 44 45 46 47 48 49 50
000
NZUS93 KARX 240310
HRRWXR

CURRENT HOURLY OBSERVATIONS ACROSS
MUCH OF THE UPPER MISSISSIPPI VALLEY
NATIONAL WEATHER SERVICE LA CROSSE WI
900 PM CST THU NOV 23 2017


...SOUTHEAST MINNESOTA...


CITY           SKY/WX    TMP DP  RH WIND       PRES   REMARKS
ROCHESTER      CLEAR     37  29  72 S16       29.74F WCI  28
ROCHESTER/MAYO FAIR      40  28  62 S12       29.74F WCI  33
WINONA         CLOUDY    37  28  70 CALM      29.76F
AUSTIN         CLEAR     36  28  75 S9        29.75F WCI  29
ALBERT LEA     CLEAR     43  28  56 S12       29.73F
DODGE CENTER   CLEAR     41  28  60 S21       29.71F
PRESTON        CLEAR     38  27  63 S17       29.76F WCI  29
OWATONNA       CLEAR     43  30  61 S17       29.70F
FARIBAULT      CLEAR     37  28  70 S7        29.69F WCI  32
$$

...ELSEWHERE IN MINNESOTA...


CITY           SKY/WX    TMP DP  RH WIND       PRES   REMARKS
MINNEAPOLIS    PTCLDY    38  29  70 S6        29.65F WCI  33
INTNL FALLS    PTCLDY    33  24  69 S7        29.40F WCI  27
DULUTH         CLOUDY    35  25  66 SW15      29.55F WCI  25
RED WING       CLEAR     41  25  52 S3        29.70F
REDWOOD FALLS  CLEAR     45  33  63 S13       29.61F
MANKATO        CLEAR     41  30  65 S12       29.68F
WORTHINGTON    MOCLDY    50  37  61 S20       29.67F
FAIRMONT       PTCLDY    40  31  70 S10       29.70F WCI  33
$$

...SOUTHWEST WISCONSIN...


CITY           SKY/WX    TMP DP  RH WIND       PRES   REMARKS
LA CROSSE      MOCLDY    39  26  59 S15       29.78F WCI  31
PRAIRIE DU CHI CLEAR     31  24  72 CALM      29.84F
BOSCOBEL       CLEAR     28  23  81 CALM      29.85F
LONE ROCK      NOT AVBL
PLATTEVILLE    CLEAR     36  28  72 S7        29.86F WCI  31
FORT MC COY    PTCLDY    27  22  80 CALM      29.79F
CAMP DOUGLAS   PTCLDY    25  20  82 SE3       29.79F
MAUSTON-NEW LI CLEAR     29  23  79 CALM      29.80F
VIROQUA        FAIR      36  27  68 S7        29.80F WCI  31
WIS DELLS      CLEAR     32  24  70 SW6       29.82F WCI  27
$$

...ELSEWHERE IN WISCONSIN...


CITY           SKY/WX    TMP DP  RH WIND       PRES   REMARKS
MILWAUKEE      CLEAR     37  25  61 SW7       29.90R WCI  32
MADISON        CLEAR     35  25  66 S6        29.85F WCI  30
GREEN BAY      PTCLDY    32  26  78 S6        29.81F WCI  26
EAU CLAIRE     CLOUDY    37  23  56 S7        29.71F WCI  32
BLACK RVR FLS  MOCLDY    28  20  72 CALM      29.76F
MEDFORD        CLOUDY    34  23  64 S9        29.72F WCI  27
WAUSAU         CLOUDY    35  23  61 SW5       29.74F WCI  31
WIS RAPIDS     CLOUDY    33  23  66 S7        29.80F WCI  27
MARSHFIELD     MOCLDY    37  21  52 S9        29.74F WCI  30
RICE LAKE      CLEAR     34  24  65 SE7       29.68F WCI  28
$$

...NORTHEAST IOWA...


CITY           SKY/WX    TMP DP  RH WIND       PRES   REMARKS
WATERLOO       CLEAR     36  28  73 S8        29.82F WCI  30
DUBUQUE        CLEAR     30  25  81 S8        29.86F WCI  22
DECORAH        CLEAR     37  27  65 S8        29.79F WCI  31
MASON CITY     CLOUDY    36  28  73 S13       29.78F WCI  27
CHARLES CITY   PTCLDY    39  28  65 S10       29.80F WCI  32
OELWEIN        CLEAR     36  30  80 S9        29.83F WCI  29
$$

...ELSEWHERE IN IOWA...


CITY           SKY/WX    TMP DP  RH WIND       PRES   REMARKS
DES MOINES     PTCLDY    44  33  65 S9        29.83F
IOWA CITY      CLEAR     34  26  72 CALM      29.91S
FORT DODGE     PTCLDY    49  34  56 S10       29.76F
MARSHALLTOWN   CLEAR     38  30  73 S9        29.82F WCI  31
CEDAR RAPIDS   CLEAR     35  27  72 S6        29.86F WCI  30
$$

...NORTHERN ILLINOIS...


CITY           SKY/WX    TMP DP  RH WIND       PRES   REMARKS
CHICAGO-OHARE  CLEAR     37  26  64 SW6       29.90F WCI  32
CHICAGO-MIDWAY CLEAR     38  27  64 SW6       29.92F WCI  33
MOLINE         CLEAR     35  26  69 CALM      29.90F
ROCKFORD       CLEAR     31  24  75 S3        29.91F
PEORIA         CLEAR     36  27  69 CALM      29.94F
$$

NOTE: "FAIR" INDICATES FEW OR NO CLOUDS BELOW 12,000 FEET WITH NO
SIGNIFICANT WEATHER AND/OR OBSTRUCTIONS TO VISIBILITY. WIND
SPEEDS ARE IN MILES-PER-HOUR.




USA.gov is the U.S. government's official web portal to all federal, state and local government web resources and services.